You are listening to:
KSCH Gnd/Twr - Schenectady, New York, United States

KSCH 241748Z 29021G27KT 15SM CLR M08/M17 A3014

If stream doesn't start automatically press the play button
If stream stops then reload player then press play